Regional Weather Roundup
Issued by NWS Albany, NY

Home | Current Version | Previous Version | Graphics & Text | Print | Product List | Glossary Off
Versions: 1 2 3 4 5 6 7 8 9 10 11 12 13 14 15 16 17 18 19 20 21 22 23 24 25 26 27 28 29 30 31 32 33 34 35 36 37 38 39 40 41 42 43 44 45 46 47 48 49 50

000
ASUS41 KALY 031810
RWRALY

NEW YORK STATE HOURLY WEATHER ROUNDUP
NATIONAL WEATHER SERVICE ALBANY NY
200 PM EDT MON AUG 03 2015

NOTE: "FAIR" INDICATES FEW OR NO CLOUDS BELOW 12,000 FEET WITH NO
SIGNIFICANT WEATHER AND/OR NO OBSTRUCTIONS TO VISIBILITY.

NYZ032-033-038>043-046>054-057>066-NYZ062>081-031900-
EAST


CITY           SKY/WX    TMP DP  RH WIND       PRES   REMARKS
ALBANY         TSTM      84  63  49 VRB7      29.72F
GLENS FALLS    MOSUNNY   84  64  50 S10       29.73S
POUGHKEEPSIE   MOSUNNY   91  59  33 S12G22    29.75F HX  90
NEWBURGH       MOSUNNY   90  57  33 W13G26    29.79F
MONTGOMERY     SUNNY     90  61  37 S15G23    29.76F HX  90
WHITE PLAINS   MOSUNNY   87  63  44 S5        29.80F
ISLIP          MOSUNNY   87  63  44 SW17      29.81F
NEW YORK CITY  MOSUNNY   89  59  36 S13G22    29.79F
CENTRAL PARK   MOSUNNY   87  62  43 MISG      29.82F
$$

NYZ005>009-017-018-044>046-055-056-031900-
CENTRAL


CITY           SKY/WX    TMP DP  RH WIND       PRES   REMARKS
FULTON         PTSUNNY   78  61  55 SW14      29.76S
SYRACUSE       CLOUDY    79  59  50 SW13G20   29.76S
ROME           CLOUDY    78  59  51 W8G17     29.78S
ELMIRA         PTSUNNY   82  58  43 W12       29.78S
BINGHAMTON     CLOUDY    78  60  53 W9        29.82F
MONTICELLO     MOSUNNY   84  64  51 S16G23    29.82F
$$

NYZ026>034-041>043-031900-
NORTH


CITY           SKY/WX    TMP DP  RH WIND       PRES   REMARKS
WATERTOWN      RAIN      67  64  90 W13       29.76R FOG
FORT DRUM      NOT AVBL
MASSENA        CLOUDY    74  64  71 SW15G23   29.71S
SARANAC LAKE   CLOUDY    70  57  63 SW8       29.77S
PLATTSBURGH    MOSUNNY   83  59  44 W8        29.70R
$$

NYZ001>004-010>016-019>021-031900-
WEST


CITY           SKY/WX    TMP DP  RH WIND       PRES   REMARKS
NIAGARA FALLS  PTSUNNY   78  59  51 SW15      29.75R
BUFFALO        MOSUNNY   76  62  62 SW18G25   29.77R
DUNKIRK        PTSUNNY   73  64  73 W13       29.80S
JAMESTOWN      PTSUNNY   73  57  56 SW13      29.84S
WELLSVILLE     MOSUNNY   77  55  46 NW10      29.86S
ROCHESTER      CLOUDY    78  61  55 W15G25    29.76S
PENN YAN       PTSUNNY   79  58  48 SW6       29.79F
$$

             KEY
       WCI = WIND CHILL INDEX
       VSB = VISIBILITY
       HX  = HEAT INDEX
$$


USA.gov is the U.S. government's official web portal to all federal, state and local government web resources and services.